Tracking 28794 objects as of 19-Apr-2024
HD Live streaming from Space Station
objects crossing your sky now

FENGYUN 1C DEB

Track FENGYUN 1C DEB now!
10-day predictions


NORAD ID: 31244
Int'l Code: 1999-025BMA
Perigee: 808.0 km
Apogee: 960.9 km
Inclination: 99.1 °
Period: 102.5 minutes
Semi major axis: 7255 km
RCS: 0.0089 m2 (small)
Launch date: May 10, 1999
Source: People's Republic of China (PRC)
Launch site: Taiyaun Space Center, China (TSC)

Note: This is SATELLITE DEBRIS
Your satellite tracking list
Your tracking list is empty




NASA's NSSDC Master Catalog

Two Line Element Set (TLE):
1 31244U 99025BMA 24106.37075775  .00001435  00000-0  87800-3 0  9992
2 31244  99.1010 163.5405 0105328  63.9405 297.2559 14.04774348491214
Source of the keplerian elements: AFSPC